Weather History for KISO - May, 2013

Change the Weather History Date:

Monday, May 27, 2013

  Actual Average Record
Temperature  
Mean Temperature 63 °F -  
Max Temperature 80 °F 81 °F 94 °F (1975)
Min Temperature 46 °F 62 °F 46 °F (1967)
Degree Days  
Heating Degree Days 2    
Growing Degree Days 13 (Base 50)    
Moisture  
Dew Point 48 °F    
Average Humidity 71    
Maximum Humidity 97    
Minimum Humidity 24    
Precipitation  
Precipitation 0.00 in - - ()
Sea Level Pressure  
Sea Level Pressure 30.25 in    
Wind  
Wind Speed 2 mph (SSE)    
Max Wind Speed 10 mph    
Max Gust Speed -    
Visibility 10 miles    
Events      
Averages and records for this station are not official NWS values.
T = Trace of Precipitation, MM = Missing Value Source: NWS Daily Summary

Daily Weather History Graph

Daily Weather History Graph

Search for Another Location

Airport or City:

Trip Planner

Search our weather history database for the weather conditions in past years. The results will help you decide how hot, cold, wet, or windy it might be!

Date:

Astronomy

May. 27, 2013 Rise Set
Actual Time 5:58 AM EDT 8:16 PM EDT
Civil Twilight 5:29 AM EDT 8:46 PM EDT
Nautical Twilight 4:53 AM EDT 9:21 PM EDT
Astronomical Twilight 4:15 AM EDT 10:00 PM EDT
Moon 10:57 PM EDT (5/27) 8:32 AM EDT (5/27)
Length of Visible Light 15h 16m
Length of Day
14h 18m
Waning Gibbous, 91% of the Moon is Illuminated
May 27
Waning Gibbous
May 31
Last Quarter
Jun 8
New
Jun 16
First Quarter
Jun 23
Full

Hourly Weather History & Observations

Time (EDT) Temp. Dew Point Humidity Pressure Visibility Wind Dir Wind Speed Gust Speed Precip Events Conditions
12:15 AM 52.0 °F 49.6 °F 92% 30.24 in 10.0 mi Calm Calm - N/A   Clear
12:35 AM 51.3 °F 49.6 °F 94% 30.25 in 10.0 mi Calm Calm - N/A   Clear
12:55 AM 51.8 °F 50.0 °F 94% 30.25 in 10.0 mi Calm Calm - N/A   Clear
1:15 AM 51.1 °F 49.5 °F 94% 30.24 in 10.0 mi Calm Calm - N/A   Clear
1:35 AM 51.1 °F 49.6 °F 95% 30.24 in 10.0 mi Calm Calm - N/A   Clear
1:55 AM 51.1 °F 50.0 °F 96% 30.25 in 10.0 mi SSW 3.5 mph - N/A   Clear
2:15 AM 50.9 °F 49.5 °F 95% 30.25 in 10.0 mi Calm Calm - N/A   Clear
2:35 AM 50.4 °F 48.6 °F 94% 30.25 in 10.0 mi Calm Calm - N/A   Clear
2:55 AM 49.3 °F 47.5 °F 94% 30.25 in 10.0 mi Calm Calm - N/A   Clear
3:15 AM 49.3 °F 47.8 °F 95% 30.25 in 10.0 mi Calm Calm - N/A   Clear
3:35 AM 48.6 °F 47.3 °F 95% 30.26 in 10.0 mi Calm Calm - N/A   Clear
3:55 AM 49.1 °F 47.7 °F 95% 30.25 in 10.0 mi Calm Calm - N/A   Clear
4:15 AM 48.6 °F 47.1 °F 95% 30.25 in 10.0 mi Calm Calm - N/A   Clear
4:35 AM 48.2 °F 46.8 °F 95% 30.25 in 10.0 mi Calm Calm - N/A   Clear
4:55 AM 47.5 °F 46.2 °F 95% 30.26 in 10.0 mi Calm Calm - N/A   Clear
5:15 AM 47.1 °F 45.9 °F 95% 30.25 in 10.0 mi Calm Calm - N/A   Clear
5:35 AM 47.5 °F 46.4 °F 96% 30.26 in 10.0 mi Calm Calm - N/A   Clear
5:55 AM 47.1 °F 46.2 °F 97% 30.26 in 7.0 mi Calm Calm - N/A   Clear
6:15 AM 46.9 °F 46.0 °F 97% 30.27 in 7.0 mi Calm Calm - N/A   Clear
6:35 AM 48.0 °F 47.1 °F 97% 30.28 in 10.0 mi Calm Calm - N/A   Clear
6:55 AM 49.5 °F 48.6 °F 97% 30.29 in 10.0 mi Calm Calm - N/A   Clear
6:56 AM 50.0 °F 48.2 °F 94% 30.29 in 10.0 mi Calm Calm - N/A   Clear
8:56 AM 60.8 °F 53.6 °F 77% 30.30 in 10.0 mi South 3.5 mph - N/A   Clear
9:56 AM 71.6 °F 44.6 °F 38% 30.30 in 10.0 mi South 4.6 mph - N/A   Clear
10:56 AM 73.4 °F 41.0 °F 31% 30.30 in 10.0 mi SE 4.6 mph - N/A   Clear
11:56 AM 75.2 °F 41.0 °F 29% 30.29 in 10.0 mi South 5.8 mph - N/A   Clear
12:56 PM 77.0 °F 39.2 °F 26% 30.28 in 10.0 mi East 3.5 mph - N/A   Clear
1:56 PM 77.0 °F 41.0 °F 28% 30.27 in 10.0 mi SE 5.8 mph - N/A   Clear
2:56 PM 78.8 °F 39.2 °F 24% 30.25 in 10.0 mi SSE 4.6 mph - N/A   Clear
3:56 PM 78.8 °F 41.0 °F 26% 30.24 in 10.0 mi Calm Calm - N/A   Clear
4:56 PM 80.6 °F 42.8 °F 26% 30.22 in 10.0 mi SSE 3.5 mph - N/A   Clear
5:56 PM 80.6 °F 42.8 °F 26% 30.20 in 10.0 mi SSW 4.6 mph - N/A   Clear
6:56 PM 78.8 °F 42.8 °F 28% 30.20 in 10.0 mi SSE 4.6 mph - N/A   Clear
7:56 PM 73.4 °F 50.0 °F 44% 30.22 in 10.0 mi SSE 10.4 mph - N/A   Clear
8:56 PM 71.6 °F 51.8 °F 50% 30.22 in 10.0 mi SSE 5.8 mph - N/A   Clear
9:15 PM 69.6 °F 52.7 °F 55% 30.23 in 10.0 mi South 5.8 mph - N/A   Clear
9:35 PM 68.4 °F 53.6 °F 59% 30.22 in 10.0 mi South 6.9 mph - N/A   Clear
9:55 PM 67.8 °F 53.8 °F 61% 30.23 in 10.0 mi South 9.2 mph - N/A   Clear
10:15 PM 67.1 °F 54.5 °F 64% 30.23 in 10.0 mi South 8.1 mph - N/A   Clear
10:35 PM 66.4 °F 54.9 °F 66% 30.24 in 10.0 mi South 5.8 mph - N/A   Clear
10:55 PM 66.2 °F 55.0 °F 67% 30.25 in 10.0 mi South 4.6 mph - N/A   Clear
11:15 PM 64.9 °F 55.4 °F 71% 30.25 in 10.0 mi SSE 4.6 mph - N/A   Clear
11:35 PM 64.4 °F 55.4 °F 73% 30.25 in 10.0 mi SSE 4.6 mph - N/A   Clear
11:55 PM 63.9 °F 55.8 °F 75% 30.25 in 10.0 mi South 3.5 mph - N/A   Clear